sat.trackr.live / text

‹ back to catalog

PLEIADES 1A

NORAD 38012 · 2011-076F

PAYLOAD ACTIVE UNKNOWN

§ Identity

Operator
Country
FR
Launch date
2011-12-17
Launch site
FRGUI
Launch vehicle
Mass (kg)
RCS (m²)
5.35

Purposes: earth_obs

External: N2YO · Heavens-Above · Gunter

§ Orbital elements

Epoch: 2026-09-13T05:07:01.199712Z

Period
98.73 min
Inclination
98.1919°
Eccentricity
0.0001167
Mean motion
14.58571866 rev/d
Perigee alt
697.0 km
Apogee alt
698.6 km
Semi-major
7,075.9 km
B*
3.8204e-5
RAAN
330.1036°
Arg perigee
101.6110°
Mean anomaly
336.1071°
Rev number
78,482

§ Raw data

PLEIADES 1A1 38012U 11076F   26256.21320833  .00000132  00000+0  38204-4 0  99982 38012  98.1919 330.1036 0001167 101.6110 336.1071 14.58571866784825

JSON: /api/v1/satellites/38012 · /tle

For live sub-satellite position, see the globe view (requires WebGL).

§ Visibility from observer

Set your observer location to see the next 7 days of passes ≥ 10°. The values pass through the URL so the page stays shareable.

No JS? Fill the form by hand. The geolocation button needs JavaScript.